Location: Lecco
(45.8566°N, 9.3977°E)
Time: 04:33:53
(UTC+02:00)

Transit 4A - Pass Details

Date: 22 August 2020
Orbit: 863 x 982 km, 66.8° (Epoch: 23 September)

Event Time Altitude Azimuth Distance (km) Brightness Sun altitude
Rises 16:30:26 0° 326° (NNW) 3,664 11.1 37.9°
Reaches altitude 10° 16:32:59 10° 327° (NNW) 2,725 10.5 37.5°
Maximum altitude 16:39:24 89° 242° (WSW) 987 8.8 36.5°
Drops below altitude 10° 16:45:50 10° 150° (SSE) 2,725 10.4 35.5°
Sets 16:48:23 0° 150° (SSE) 3,665 10.9 35.0°
